Temperature
16 16 16 16 16 16 15 15 15 15 15 14 14 14 14 13 13 13 13 13 12 12 12 12 12 12 12 12 12 12 12 12 12 12 12 11 11 11 11 10 10 10 10
15 15 15 15 15 15 15 15 14 14 14 14 14 14 13 13 13 13 13 12 12 12 12 12 11 11 11 11 11 12 12 12 11 11 11 11 11 11 10 10 10 10 9
15 15 15 15 15 14 14 14 14 14 14 13 13 13 13 13 13 12 12 12 12 12 12 12 11 11 11 11 11 11 11 11 11 11 11 11 10 10 10 10 9 9 9
14 14 14 14 14 14 13 13 13 13 13 13 13 13 12 12 12 12 12 12 12 12 12 11 11 11 11 11 10 10 10 10 11 10 10 10 10 9 9 9 9 8 8
14 14 14 14 13 13 13 13 13 13 13 12 12 12 12 12 12 12 12 12 12 12 12 11 11 11 11 10 10 10 9 10 10 10 10 9 9 9 9 8 8 8 7
14 14 14 14 13 13 13 13 13 12 12 12 12 12 12 12 12 12 12 12 12 12 12 11 11 11 11 10 10 10 9 9 9 9 9 9 8 8 8 7 7 7 7
14 14 14 14 13 13 13 13 13 12 12 12 12 12 12 12 12 12 12 12 12 12 11 11 11 11 10 10 10 9 9 9 8 8 8 8 8 7 7 6 6 6 6
14 14 14 13 13 13 13 13 12 12 12 12 12 11 11 11 12 12 12 12 12 11 11 11 11 10 10 10 9 9 9 8 8 8 8 7 7 7 6 6 5 5 5
14 13 13 13 13 13 13 13 12 12 12 12 11 11 10 10 10 11 11 11 11 11 11 10 10 10 10 9 9 9 8 8 8 7 7 7 6 6 6 5 5 5 5
13 13 13 13 13 13 12 12 12 12 11 11 11 11 11 10 10 9 10 10 10 10 10 10 10 9 9 9 9 8 8 8 7 7 7 6 6 5 5 5 5 5 4
13 13 12 12 12 12 12 12 12 11 11 11 10 10 10 10 9 9 9 9 9 9 9 9 9 9 8 8 8 7 7 7 7 6 6 6 5 5 5 5 4 4 4
12 12 12 12 12 11 11 11 11 11 11 10 10 10 9 9 9 9 8 8 8 8 8 8 8 8 8 7 7 7 6 6 6 6 6 5 5 5 4 4 4 4 4
11 11 11 11 11 11 10 10 10 10 10 10 10 9 9 9 8 8 8 7 7 7 7 7 7 7 7 7 6 6 6 5 5 5 5 5 5 4 4 4 3 3 3
10 10 10 10 10 10 10 10 9 9 9 9 9 9 9 8 8 7 7 6 6 6 6 6 6 6 6 6 5 5 5 5 5 4 4 4 4 4 3 3 3 3 2
9 9 9 9 9 9 9 9 9 9 8 8 8 8 8 8 7 7 6 6 5 5 5 5 5 5 5 5 4 4 4 4 4 4 3 3 3 3 3 2 2 2 2
8 8 8 8 8 8 8 8 8 8 8 8 7 7 7 7 6 6 6 6 5 5 4 4 4 4 4 4 4 3 3 3 3 3 2 2 2 2 2 1 1 1 1
7 7 7 7 7 7 7 7 7 7 7 7 6 6 6 6 5 5 5 5 5 4 4 3 3 3 3 3 3 3 2 2 2 1 1 1 1 1 1 0 0 0 -0
6 6 6 6 6 6 6 6 6 6 6 6 5 5 5 5 4 4 4 4 4 4 3 3 3 2 2 2 2 1 1 1 1 1 1 0 0 0 -0 -0 -1 -1 -1
5 5 5 5 5 5 5 5 5 5 5 5 4 4 4 4 3 3 3 3 3 3 2 2 2 1 1 1 1 1 0 0 0 0 -0 -0 -1 -1 -1 -1 -1 -1 -2
4 4 4 4 4 4 4 4 4 4 4 4 3 3 3 3 2 2 2 2 2 2 1 1 1 0 -0 -0 -1 -1 -1 -1 -1 -1 -1 -1 -1 -1 -2 -2 -2 -2 -2
3 3 3 3 3 3 3 3 3 3 3 3 2 2 2 2 1 1 1 1 1 1 0 0 -0 -1 -1 -1 -1 -2 -2 -2 -2 -2 -2 -2 -2 -2 -2 -2 -2 -2 -3
2 2 2 2 2 2 2 2 2 2 2 2 1 1 1 1 0 0 0 -0 -0 -1 -1 -1 -1 -2 -2 -3 -3 -3 -3 -3 -3 -3 -3 -3 -3 -3 -3 -3 -3 -3 -3
1 1 2 2 2 2 1 1 1 1 1 1 1 0 0 -0 -0 -1 -1 -1 -1 -1 -2 -2 -2 -3 -3 -4 -4 -4 -4 -4 -4 -4 -4 -3 -3 -4 -4 -3 -3 -3 -3
1 1 1 1 1 1 1 1 1 0 0 0 -0 -0 -1 -1 -1 -1 -2 -2 -2 -2 -3 -3 -3 -4 -4 -4 -4 -5 -5 -5 -5 -5 -5 -4 -4 -4 -4 -4 -4 -4 -4
0 0 0 0 0 0 0 0 -0 -0 -0 -1 -1 -1 -1 -2 -2 -2 -2 -2 -3 -3 -3 -4 -4 -4 -4 -5 -5 -5 -5 -5 -5 -5 -5 -5 -5 -4 -4 -4 -4 -4 -5
-0 -0 -0 -0 -0 -0 -0 -0 -1 -1 -1 -1 -1 -2 -2 -2 -3 -3 -3 -3 -3 -4 -4 -4 -4 -5 -5 -5 -5 -5 -6 -6 -6 -6 -6 -6 -6 -6 -5 -4 -5 -5 -5
Wind_Speed
6 6 6 7 7 7 7 6 6 6 6 6 6 6 6 8 9 10 12 13 13 13 12 12 11 10 9 9 8 7 7 6 5 5 4 4 3 3 3 3 3 3 3
9 7 6 7 9 10 10 9 8 6 6 6 6 8 8 9 10 12 13 15 16 16 15 15 14 13 12 12 11 10 9 9 8 7 6 6 5 4 3 3 2 2 2
12 10 6 6 10 12 11 9 8 6 5 5 5 8 9 10 11 13 14 15 16 18 19 18 18 17 16 15 14 13 12 11 10 9 9 8 7 6 5 4 3 2 1
14 11 7 7 11 11 9 5 5 4 5 5 6 6 7 9 11 13 14 15 16 17 19 20 21 20 18 18 17 16 15 14 13 12 11 10 9 8 7 6 5 4 3
14 12 8 9 11 8 7 6 6 5 6 6 6 6 6 6 8 11 11 15 17 18 18 20 22 22 21 20 19 19 17 17 16 15 14 12 11 10 9 8 7 6 5
11 11 8 9 9 5 6 6 7 6 6 6 6 6 6 7 6 7 9 12 14 16 18 18 19 20 22 22 22 21 20 19 18 17 16 15 13 12 11 10 9 8 7
8 9 6 6 6 6 8 8 6 6 6 3 3 5 5 6 7 7 6 7 9 13 14 16 16 17 17 21 23 23 22 21 20 19 18 16 15 14 13 12 11 10 9
5 6 5 4 4 5 6 6 6 4 4 4 4 3 4 4 5 6 5 6 6 7 8 12 13 15 16 16 18 22 23 22 21 20 19 18 16 14 13 13 12 11 9
2 3 4 4 3 5 5 6 6 7 6 4 5 5 4 5 3 3 3 3 4 3 4 6 9 12 14 15 16 18 21 22 22 21 19 18 17 16 15 13 12 11 10
2 2 2 3 2 3 4 5 5 5 6 5 4 6 6 3 3 4 2 2 2 3 4 4 6 9 11 12 14 15 17 20 21 21 19 18 18 17 16 16 14 11 9
4 4 3 2 2 2 3 4 4 4 5 5 4 3 5 4 5 5 5 3 2 2 2 3 3 5 7 8 10 12 14 16 19 20 19 19 18 17 16 14 12 10 7
3 6 5 4 3 2 2 3 3 3 3 4 3 3 3 3 3 5 6 4 4 2 1 1 2 3 5 5 7 8 10 13 16 18 18 17 15 14 12 10 8 6 4
3 5 5 4 3 3 3 2 1 1 1 1 2 2 2 2 2 3 4 4 3 2 1 1 3 5 5 6 6 6 7 10 11 13 14 13 11 8 7 7 5 4 3
2 3 4 4 5 5 4 3 3 3 2 2 2 2 1 2 1 1 2 2 3 2 1 2 2 5 6 6 6 5 5 6 7 8 7 6 5 3 2 2 2 2 2
3 4 5 5 5 5 5 4 4 4 4 4 4 4 3 3 3 3 2 1 2 3 2 2 3 4 6 6 6 5 4 5 4 3 3 3 3 2 1 1 1 2 4
4 5 5 5 6 6 5 5 5 5 6 6 5 6 5 4 4 4 3 3 1 1 1 2 3 3 5 5 7 7 7 7 7 6 6 5 4 3 2 1 2 3 4
5 5 5 6 6 7 6 6 7 7 7 7 7 7 7 6 5 5 5 4 4 2 0 1 2 3 4 4 6 7 8 8 8 8 7 6 5 3 2 3 4 5 7
5 6 6 6 7 7 7 8 8 8 8 8 8 8 7 6 7 6 5 5 4 4 2 1 2 3 4 4 4 5 6 7 8 8 7 6 5 4 4 5 5 7 8
6 6 6 7 7 7 8 8 8 9 9 8 8 7 6 6 7 5 6 5 4 5 4 3 2 3 3 3 3 4 5 5 7 7 7 6 6 6 6 7 7 8 9
6 6 6 7 7 7 7 8 8 8 8 8 8 7 6 6 5 5 5 5 5 5 5 4 3 3 3 3 3 3 3 3 3 5 7 7 8 8 8 8 9 10 10
6 6 6 6 6 6 6 7 7 8 8 8 8 7 7 8 8 6 5 4 5 4 4 4 3 3 3 3 3 3 2 3 3 2 3 4 6 7 8 8 9 10 11
6 6 7 6 6 6 10 11 9 7 7 7 6 6 6 7 9 10 10 9 7 4 3 3 2 2 2 2 2 2 2 3 3 3 3 4 3 4 6 8 9 10 10
6 6 6 6 6 7 11 11 11 7 6 6 5 5 4 5 7 5 7 10 9 9 6 3 2 0 1 1 1 2 1 1 3 3 3 4 3 3 6 9 11 10 8
5 4 5 5 5 6 9 10 10 7 5 5 4 3 3 3 2 3 4 5 5 5 5 3 1 1 2 3 2 2 2 2 3 3 1 3 3 3 5 10 9 5 5
4 3 3 4 4 4 6 8 8 4 4 3 3 2 2 3 4 5 4 3 4 4 5 6 4 4 5 4 2 1 1 2 3 2 1 1 3 4 4 3 6 6 7
4 4 3 3 3 2 3 6 7 3 3 2 2 3 4 3 4 4 3 1 2 2 2 3 5 5 6 6 6 3 1 1 1 3 2 1 2 3 4 3 3 7 9
Wind_Direction
196 204 213 218 223 225 225 231 240 249 259 267 267 257 253 253 255 254 252 251 250 250 248 244 238 234 230 228 224 220 216 212 208 203 195 187 176 165 150 132 119 103 89
205 207 215 221 227 228 227 228 233 240 251 259 266 262 257 254 252 251 251 251 249 246 244 245 243 239 235 233 229 225 221 218 217 214 209 204 199 193 186 176 157 136 115
214 213 215 222 230 231 229 231 237 239 247 250 256 261 259 254 249 248 248 248 247 245 241 242 243 241 238 235 233 229 224 221 219 218 216 213 210 207 206 202 196 194 180
219 215 217 227 232 227 222 221 225 232 241 242 249 253 252 253 250 248 246 244 243 242 241 241 242 243 241 239 237 234 229 223 219 219 218 216 215 215 215 214 213 218 223
220 216 221 229 227 219 218 224 222 217 236 242 245 250 247 245 248 249 243 242 240 239 239 240 240 242 241 240 240 239 234 228 222 220 219 219 219 219 220 221 222 225 229
220 217 223 227 219 215 222 221 228 222 230 240 251 257 252 247 245 242 243 245 243 241 240 239 240 242 241 240 241 242 239 234 227 221 219 219 219 220 223 226 228 230 234
222 217 225 223 215 221 227 224 224 230 237 224 242 273 269 248 244 244 239 241 245 245 243 241 240 240 242 242 241 242 242 240 235 227 221 219 219 221 224 228 231 234 237
229 225 227 227 220 227 233 228 218 224 229 191 199 243 287 299 265 243 236 240 247 247 244 245 244 242 242 242 241 241 242 243 240 234 226 219 217 221 227 231 234 237 239
254 243 241 236 229 224 234 234 224 226 238 222 202 213 241 254 288 285 254 248 253 249 251 253 249 248 247 245 245 244 241 241 242 240 229 220 219 220 223 226 232 239 242
355 327 295 266 250 240 245 248 236 231 233 240 221 225 234 237 253 286 277 268 261 261 265 262 259 255 252 248 246 246 244 241 242 241 235 228 225 226 227 227 228 226 230
19 8 359 347 308 273 266 263 255 240 234 240 231 219 234 242 234 252 273 271 292 277 279 279 285 281 275 264 258 253 249 245 246 246 245 241 234 232 232 229 226 224 230
12 12 10 7 351 327 301 286 273 259 253 249 246 228 218 224 225 236 257 263 266 278 304 316 331 335 324 307 286 273 261 254 254 254 254 251 242 238 233 226 220 221 237
10 5 12 10 3 355 351 347 341 330 307 269 265 256 248 248 244 240 259 273 269 280 321 352 16 9 356 345 324 303 280 268 264 263 260 257 253 239 236 225 217 232 254
15 6 17 21 19 18 20 28 42 37 41 42 29 19 13 3 344 293 263 268 278 274 300 327 31 20 5 358 345 333 312 294 283 276 274 277 272 250 215 221 263 274 284
32 30 31 31 30 31 35 43 56 51 57 53 48 51 51 33 27 15 3 305 258 269 280 20 16 9 3 7 3 4 355 339 327 320 326 3 49 56 58 31 291 276 275
37 37 39 40 39 38 40 53 59 56 65 57 54 60 55 40 39 33 29 27 21 243 254 42 27 3 1 16 26 34 32 30 30 28 35 42 40 46 31 329 283 281 283
42 47 49 52 51 46 45 58 62 61 68 62 56 62 58 51 51 41 39 40 35 34 110 60 42 17 19 19 22 33 38 36 28 28 27 25 21 7 343 312 297 288 284
52 53 56 60 59 55 54 62 66 64 68 66 60 61 56 57 54 44 44 43 36 28 60 68 34 22 26 18 20 29 32 33 25 16 10 8 3 355 337 316 300 292 287
62 59 63 66 64 62 64 66 73 72 70 67 64 65 60 63 60 51 50 46 36 36 43 77 51 28 26 23 28 29 29 19 17 13 10 7 358 343 326 311 302 296 290
70 67 69 72 73 71 70 73 76 76 73 66 60 58 56 62 69 62 55 47 47 49 50 62 56 34 28 15 32 22 11 3 358 3 5 360 352 340 327 315 305 297 289
74 70 73 74 81 84 82 82 79 80 77 69 56 48 49 60 68 69 66 55 56 57 55 55 46 31 20 16 12 355 358 339 340 356 341 333 327 320 316 313 304 292 284
75 70 65 64 65 80 93 93 91 78 75 71 62 47 47 48 55 57 59 57 59 65 64 62 47 41 4 348 342 353 356 4 337 341 344 311 315 302 304 306 301 293 284
88 77 66 63 62 79 90 92 92 87 78 71 63 51 45 42 48 45 51 49 44 50 61 104 96 52 296 291 318 332 330 299 277 297 336 302 323 301 301 309 311 298 287
100 88 75 67 63 74 92 96 98 88 81 71 62 57 44 14 35 80 68 47 33 27 38 64 137 230 247 248 224 226 251 284 281 282 252 288 317 298 304 313 320 318 313
114 103 92 79 69 60 89 105 106 96 82 61 40 35 27 349 15 66 81 53 26 4 21 30 28 16 3 354 2 72 352 348 322 309 350 295 309 308 302 302 319 331 333
134 123 108 93 76 35 81 112 117 115 99 69 29 9 7 359 6 35 103 76 359 330 356 8 15 18 22 22 28 50 142 174 282 296 309 320 310 336 321 297 290 299 306
Height
1564 1565 1566 1566 1567 1567 1568 1568 1569 1569 1569 1570 1570 1570 1570 1570 1570 1570 1570 1570 1570 1570 1570 1570 1569 1569 1568 1568 1567 1566 1566 1565 1565 1564 1564 1564 1563 1563 1563 1563 1562 1562 1562
1562 1563 1564 1565 1565 1566 1566 1566 1567 1567 1567 1567 1567 1567 1567 1567 1567 1567 1567 1567 1568 1567 1567 1567 1567 1567 1566 1565 1565 1564 1564 1563 1563 1563 1562 1562 1562 1562 1561 1561 1561 1561 1561
1560 1561 1562 1562 1563 1564 1564 1564 1564 1564 1564 1564 1564 1564 1564 1564 1564 1564 1564 1564 1564 1564 1564 1564 1564 1563 1563 1563 1562 1562 1561 1561 1560 1560 1560 1560 1560 1560 1559 1559 1559 1559 1559
1558 1559 1559 1560 1561 1561 1561 1561 1561 1561 1561 1561 1561 1561 1561 1560 1560 1560 1560 1560 1560 1560 1560 1560 1560 1560 1559 1559 1559 1558 1558 1557 1557 1557 1557 1557 1557 1557 1557 1557 1557 1557 1557
1555 1556 1556 1557 1557 1557 1557 1558 1557 1557 1557 1557 1557 1556 1556 1556 1556 1555 1555 1555 1555 1555 1555 1555 1555 1555 1555 1555 1555 1555 1554 1554 1553 1553 1553 1553 1553 1554 1554 1554 1554 1555 1555
1552 1552 1553 1553 1554 1553 1553 1554 1554 1553 1553 1553 1552 1551 1551 1551 1550 1550 1550 1550 1550 1550 1550 1549 1549 1549 1550 1550 1550 1550 1550 1549 1549 1549 1549 1549 1549 1550 1550 1551 1551 1552 1552
1548 1548 1549 1549 1549 1549 1549 1550 1549 1549 1548 1549 1547 1545 1545 1545 1544 1544 1544 1544 1544 1544 1544 1543 1543 1543 1543 1543 1544 1544 1544 1544 1544 1543 1543 1543 1544 1545 1546 1547 1548 1548 1549
1544 1544 1544 1544 1544 1544 1544 1545 1544 1544 1543 1544 1543 1541 1539 1538 1537 1538 1538 1538 1538 1538 1538 1538 1537 1537 1537 1537 1537 1537 1538 1538 1538 1538 1537 1538 1538 1540 1541 1542 1543 1544 1545
1539 1539 1539 1539 1539 1539 1539 1539 1539 1538 1538 1538 1538 1538 1535 1532 1532 1532 1532 1532 1532 1532 1532 1531 1531 1530 1530 1530 1530 1530 1530 1531 1531 1531 1531 1531 1532 1534 1535 1536 1537 1539 1540
1534 1534 1534 1534 1533 1533 1533 1533 1533 1533 1532 1532 1532 1532 1531 1530 1528 1525 1526 1527 1527 1526 1526 1525 1524 1524 1523 1523 1522 1522 1523 1523 1524 1524 1525 1525 1526 1527 1529 1530 1531 1533 1534
1528 1528 1528 1528 1528 1527 1527 1527 1527 1527 1527 1526 1526 1526 1525 1525 1524 1522 1520 1520 1521 1521 1520 1519 1518 1517 1517 1516 1515 1515 1515 1516 1516 1517 1518 1519 1520 1521 1522 1524 1525 1526 1528
1523 1523 1523 1522 1522 1522 1522 1521 1521 1521 1521 1521 1520 1520 1520 1519 1518 1518 1515 1514 1514 1514 1514 1513 1513 1512 1510 1509 1509 1508 1508 1509 1509 1510 1512 1513 1513 1515 1516 1517 1518 1520 1522
1518 1518 1517 1517 1516 1516 1516 1516 1515 1515 1515 1515 1515 1514 1514 1514 1513 1513 1511 1509 1508 1508 1508 1508 1507 1506 1505 1503 1503 1502 1503 1503 1504 1504 1505 1506 1507 1508 1510 1511 1512 1514 1516
1513 1512 1512 1512 1511 1511 1510 1510 1510 1510 1509 1509 1509 1509 1508 1508 1508 1507 1507 1506 1504 1503 1503 1503 1502 1501 1500 1499 1498 1497 1497 1497 1498 1499 1499 1500 1502 1502 1503 1505 1507 1509 1510
1508 1508 1507 1507 1507 1506 1506 1505 1505 1505 1505 1504 1504 1504 1503 1503 1503 1502 1502 1501 1502 1499 1499 1498 1497 1496 1496 1495 1494 1493 1493 1493 1493 1494 1495 1496 1497 1498 1499 1500 1502 1503 1504
1504 1504 1503 1503 1502 1502 1501 1501 1501 1500 1500 1500 1500 1499 1499 1499 1498 1498 1498 1497 1497 1496 1495 1494 1493 1493 1492 1491 1490 1490 1489 1489 1489 1490 1491 1492 1493 1494 1495 1496 1497 1498 1499
1500 1500 1500 1499 1499 1498 1498 1497 1497 1497 1497 1497 1496 1496 1496 1495 1495 1495 1494 1494 1493 1493 1492 1491 1490 1489 1489 1488 1487 1487 1486 1486 1486 1487 1488 1488 1489 1490 1490 1491 1492 1493 1493
1497 1497 1496 1496 1496 1495 1495 1495 1494 1494 1494 1494 1494 1493 1493 1493 1492 1492 1491 1491 1490 1490 1490 1489 1488 1487 1486 1485 1485 1484 1484 1484 1484 1484 1485 1485 1485 1485 1486 1486 1487 1487 1488
1495 1494 1494 1493 1493 1493 1493 1492 1492 1492 1492 1492 1492 1492 1491 1491 1491 1490 1489 1489 1488 1488 1487 1486 1485 1485 1484 1483 1482 1482 1481 1481 1481 1481 1481 1481 1481 1481 1481 1481 1481 1482 1482
1493 1492 1492 1492 1492 1491 1491 1491 1491 1491 1491 1490 1490 1490 1490 1489 1489 1488 1488 1487 1486 1486 1485 1484 1483 1483 1482 1481 1480 1480 1479 1478 1478 1478 1477 1477 1477 1476 1476 1476 1476 1476 1477
1491 1491 1491 1491 1490 1490 1490 1490 1490 1490 1490 1489 1489 1489 1489 1488 1487 1487 1486 1485 1485 1484 1483 1482 1481 1481 1480 1479 1479 1477 1477 1476 1475 1475 1474 1474 1473 1472 1472 1472 1471 1471 1472
1490 1490 1490 1490 1490 1490 1490 1489 1489 1489 1489 1489 1488 1488 1488 1487 1486 1486 1485 1484 1483 1483 1481 1481 1480 1479 1478 1478 1477 1476 1475 1474 1473 1473 1472 1471 1470 1469 1468 1468 1467 1467 1467
1489 1489 1489 1489 1489 1489 1489 1489 1488 1488 1488 1488 1487 1487 1486 1486 1485 1485 1484 1483 1482 1481 1480 1480 1478 1478 1477 1476 1475 1474 1473 1472 1471 1470 1469 1468 1467 1466 1465 1464 1463 1463 1462
1488 1488 1489 1489 1489 1488 1488 1488 1487 1487 1487 1487 1486 1486 1485 1485 1484 1483 1482 1482 1481 1480 1479 1478 1477 1476 1476 1475 1474 1473 1472 1471 1470 1469 1467 1465 1464 1463 1462 1460 1459 1459 1458
1487 1488 1488 1488 1488 1488 1487 1487 1487 1487 1486 1486 1486 1485 1484 1484 1483 1482 1482 1481 1480 1479 1478 1477 1476 1475 1474 1473 1472 1471 1470 1469 1467 1466 1465 1463 1461 1460 1458 1457 1456 1455 1455
1486 1487 1487 1487 1487 1487 1487 1486 1486 1486 1485 1485 1484 1484 1483 1483 1482 1481 1480 1479 1478 1478 1477 1476 1475 1474 1473 1472 1470 1469 1468 1467 1465 1464 1462 1461 1459 1457 1455 1454 1453 1453 1452